When you browse on this site, cookies collect data to enhance your experience and personalize the content and advertising you see.
Visit our Privacy Policy to learn more. By continuing to use the site, you agree to this use of cookies and data.
  • In Schweiz
  • Länderverzeichnis
  • Für 7 Tage
  • Wassertemperatur
  • Wetterkarte
  • Widgets
  • user-avatar
    Anmelden

    Stündliche Wetter Budnye

    Heute, 21 Februar, Freitag

    Zeit Temperatur Niederschläge Wind Luftdruck Luftfeuchtigkeit
    00:00 +1°C° 0 mm 2 m/S 747 mmHg 88%
    01:00 -1°C° 0 mm 2 m/S 747 mmHg 89%
    02:00 -1°C° 0 mm 2 m/S 747 mmHg 90%
    03:00 -1°C° 0 mm 3 m/S 746 mmHg 88%
    04:00 -1°C° 0 mm 3 m/S 745 mmHg 87%
    05:00 -2°C° 0 mm 4 m/S 745 mmHg 85%
    06:00 -2°C° 0 mm 4 m/S 744 mmHg 82%
    07:00 -2°C° 0 mm 4 m/S 744 mmHg 80%
    08:00 -2°C° 0 mm 5 m/S 744 mmHg 78%
    15:00 +2°C° 0 mm 5 m/S 743 mmHg 66%
    16:00 +1°C° 0 mm 4 m/S 743 mmHg 72%
    17:00 +2°C° 0 mm 3 m/S 743 mmHg 78%
    18:00 +1°C° 0.1 mm 3 m/S 744 mmHg 84%
    19:00 +1°C° 0.1 mm 3 m/S 744 mmHg 90%
    20:00 +1°C° 0.1 mm 3 m/S 745 mmHg 96%
    21:00 +1°C° 0 mm 2 m/S 745 mmHg 96%
    22:00 +1°C° 0 mm 2 m/S 746 mmHg 96%
    23:00 +1°C° 0 mm 2 m/S 746 mmHg 96%

    Morgen, 22 Februar, Samstag

    Zeit Temperatur Niederschläge Wind Luftdruck Luftfeuchtigkeit
    00:00 +1°C° 0 mm 2 m/S 746 mmHg 95%
    01:00 +1°C° 0 mm 2 m/S 747 mmHg 93%
    02:00 -1°C° 0 mm 2 m/S 747 mmHg 92%
    03:00 -1°C° 0 mm 3 m/S 747 mmHg 91%
    04:00 -1°C° 0 mm 3 m/S 747 mmHg 90%
    05:00 -1°C° 0 mm 3 m/S 747 mmHg 90%
    06:00 -1°C° 0 mm 3 m/S 747 mmHg 90%
    07:00 -1°C° 0 mm 3 m/S 747 mmHg 91%
    08:00 -1°C° 0 mm 3 m/S 748 mmHg 92%
    09:00 -1°C° 0 mm 4 m/S 747 mmHg 85%
    10:00 0°C° 0 mm 5 m/S 747 mmHg 78%
    11:00 +2°C° 0 mm 6 m/S 746 mmHg 71%
    12:00 +2°C° 0 mm 7 m/S 745 mmHg 69%
    13:00 +2°C° 0 mm 7 m/S 745 mmHg 66%
    14:00 +2°C° 0 mm 8 m/S 744 mmHg 63%
    15:00 +2°C° 0 mm 8 m/S 743 mmHg 64%
    16:00 +1°C° 0 mm 8 m/S 741 mmHg 65%
    17:00 +1°C° 0 mm 8 m/S 740 mmHg 66%
    18:00 +1°C° 0.2 mm 9 m/S 739 mmHg 71%
    19:00 0°C° 0.2 mm 9 m/S 739 mmHg 75%
    20:00 0°C° 0.2 mm 9 m/S 738 mmHg 80%
    21:00 +1°C° 0.4 mm 9 m/S 737 mmHg 81%
    22:00 +1°C° 0.4 mm 9 m/S 736 mmHg 82%
    23:00 +1°C° 0.4 mm 9 m/S 735 mmHg 83%

    übermorgen, 23 Februar, Sonntag

    Zeit Temperatur Niederschläge Wind Luftdruck Luftfeuchtigkeit
    00:00 +1°C° 0.7 mm 8 m/S 734 mmHg 83%
    01:00 +1°C° 0.7 mm 8 m/S 734 mmHg 82%
    02:00 +2°C° 0.7 mm 7 m/S 734 mmHg 82%
    03:00 +2°C° 0.1 mm 7 m/S 734 mmHg 80%
    04:00 0°C° 0.1 mm 7 m/S 733 mmHg 79%
    05:00 -1°C° 0.1 mm 6 m/S 733 mmHg 78%
    06:00 -1°C° 0.6 mm 7 m/S 734 mmHg 80%
    07:00 -1°C° 0.6 mm 8 m/S 734 mmHg 82%
    08:00 -2°C° 0.6 mm 8 m/S 734 mmHg 84%
    09:00 -1°C° 0.1 mm 8 m/S 735 mmHg 80%
    10:00 -1°C° 0.1 mm 9 m/S 735 mmHg 76%
    11:00 0°C° 0.1 mm 9 m/S 735 mmHg 71%
    12:00 0°C° 0.1 mm 9 m/S 735 mmHg 69%
    13:00 +1°C° 0.1 mm 8 m/S 735 mmHg 66%
    14:00 +1°C° 0.1 mm 8 m/S 735 mmHg 64%
    15:00 +1°C° 0.1 mm 8 m/S 735 mmHg 66%
    16:00 0°C° 0.1 mm 7 m/S 735 mmHg 68%
    17:00 0°C° 0.1 mm 7 m/S 734 mmHg 70%
    18:00 -1°C° 0 mm 6 m/S 734 mmHg 73%
    19:00 0°C° 0 mm 5 m/S 734 mmHg 75%
    20:00 -1°C° 0 mm 4 m/S 734 mmHg 77%
    21:00 -1°C° 0 mm 4 m/S 733 mmHg 78%
    22:00 -1°C° 0 mm 4 m/S 732 mmHg 79%
    23:00 -2°C° 0 mm 4 m/S 732 mmHg 80%

    24 Februar, Montag

    Zeit Temperatur Niederschläge Wind Luftdruck Luftfeuchtigkeit
    00:00 -2°C° 0 mm 4 m/S 732 mmHg 81%
    01:00 -2°C° 0 mm 4 m/S 731 mmHg 83%
    02:00 -2°C° 0 mm 4 m/S 731 mmHg 84%
    03:00 -2°C° 0 mm 4 m/S 731 mmHg 86%
    04:00 -2°C° 0 mm 5 m/S 731 mmHg 89%
    05:00 -2°C° 0 mm 5 m/S 731 mmHg 91%
    06:00 -2°C° 0.1 mm 6 m/S 732 mmHg 90%
    07:00 -2°C° 0.1 mm 6 m/S 733 mmHg 88%
    08:00 -1°C° 0.1 mm 6 m/S 734 mmHg 87%
    09:00 -1°C° 0 mm 7 m/S 735 mmHg 78%
    10:00 0°C° 0 mm 7 m/S 735 mmHg 70%
    11:00 +1°C° 0 mm 8 m/S 736 mmHg 62%
    12:00 0°C° 0 mm 8 m/S 737 mmHg 61%
    13:00 0°C° 0 mm 8 m/S 738 mmHg 60%
    14:00 0°C° 0 mm 8 m/S 739 mmHg 59%
    15:00 0°C° 0 mm 7 m/S 740 mmHg 60%
    16:00 -1°C° 0 mm 7 m/S 740 mmHg 60%
    17:00 -1°C° 0 mm 6 m/S 741 mmHg 60%
    18:00 -2°C° 0 mm 6 m/S 742 mmHg 63%
    19:00 -1°C° 0 mm 5 m/S 743 mmHg 66%
    20:00 -2°C° 0 mm 5 m/S 743 mmHg 69%
    21:00 -2°C° 0 mm 4 m/S 744 mmHg 70%
    22:00 -3°C° 0 mm 4 m/S 744 mmHg 71%
    23:00 -3°C° 0 mm 4 m/S 745 mmHg 73%

    25 Februar, Dienstag

    Zeit Temperatur Niederschläge Wind Luftdruck Luftfeuchtigkeit
    00:00 -2°C° 0 mm 3 m/S 745 mmHg 75%
    01:00 -2°C° 0 mm 3 m/S 745 mmHg 77%
    02:00 -3°C° 0 mm 2 m/S 745 mmHg 79%
    03:00 -3°C° 0 mm 2 m/S 744 mmHg 78%
    04:00 -3°C° 0 mm 2 m/S 744 mmHg 77%
    05:00 -3°C° 0 mm 2 m/S 744 mmHg 77%
    06:00 -2°C° 0 mm 3 m/S 743 mmHg 70%
    07:00 -2°C° 0 mm 4 m/S 743 mmHg 63%
    08:00 -2°C° 0 mm 5 m/S 742 mmHg 57%
    09:00 -2°C° 0 mm 6 m/S 741 mmHg 59%
    10:00 -1°C° 0 mm 7 m/S 740 mmHg 61%
    11:00 0°C° 0 mm 8 m/S 739 mmHg 63%
    12:00 0°C° 0 mm 8 m/S 738 mmHg 66%
    13:00 0°C° 0 mm 8 m/S 738 mmHg 68%
    14:00 0°C° 0 mm 8 m/S 737 mmHg 71%
    15:00 0°C° 0.2 mm 7 m/S 736 mmHg 74%
    16:00 +2°C° 0.2 mm 7 m/S 736 mmHg 78%
    17:00 +2°C° 0.2 mm 6 m/S 736 mmHg 81%
    18:00 +2°C° 0.1 mm 5 m/S 736 mmHg 85%
    19:00 +3°C° 0.1 mm 4 m/S 736 mmHg 90%
    20:00 +3°C° 0.1 mm 3 m/S 736 mmHg 94%
    21:00 +2°C° 0 mm 3 m/S 736 mmHg 95%
    22:00 +2°C° 0 mm 3 m/S 736 mmHg 95%
    23:00 +1°C° 0 mm 3 m/S 736 mmHg 95%

    26 Februar, Mittwoch

    Zeit Temperatur Niederschläge Wind Luftdruck Luftfeuchtigkeit
    00:00 +2°C° 0 mm 3 m/S 735 mmHg 95%
    01:00 +1°C° 0 mm 4 m/S 735 mmHg 96%
    02:00 +1°C° 0 mm 4 m/S 735 mmHg 96%
    03:00 +2°C° 0.1 mm 3 m/S 734 mmHg 96%
    04:00 +2°C° 0.1 mm 3 m/S 734 mmHg 96%
    05:00 +2°C° 0.1 mm 3 m/S 734 mmHg 96%
    06:00 +2°C° 0.1 mm 3 m/S 734 mmHg 96%
    07:00 +2°C° 0.1 mm 3 m/S 734 mmHg 96%
    08:00 +2°C° 0.1 mm 3 m/S 734 mmHg 96%
    09:00 +3°C° 0 mm 3 m/S 734 mmHg 86%
    10:00 +3°C° 0 mm 3 m/S 734 mmHg 76%
    11:00 +4°C° 0 mm 4 m/S 734 mmHg 66%
    12:00 +4°C° 0 mm 3 m/S 734 mmHg 63%
    13:00 +4°C° 0 mm 3 m/S 734 mmHg 60%
    14:00 +5°C° 0 mm 3 m/S 733 mmHg 57%
    15:00 +4°C° 0 mm 3 m/S 733 mmHg 60%
    16:00 +5°C° 0 mm 2 m/S 733 mmHg 63%
    17:00 +4°C° 0 mm 2 m/S 732 mmHg 66%
    18:00 +4°C° 0 mm 2 m/S 732 mmHg 69%
    19:00 +3°C° 0 mm 2 m/S 732 mmHg 71%
    20:00 +3°C° 0 mm 2 m/S 732 mmHg 73%
    21:00 +3°C° 0 mm 2 m/S 732 mmHg 77%
    22:00 +2°C° 0 mm 3 m/S 731 mmHg 81%
    23:00 +1°C° 0 mm 3 m/S 731 mmHg 85%
    Mehr zeigen